Location: B?dargowo
(53.3916°N, 14.4413°E)
Time: 01:32:29
(UTC+00:00)

SJ-6B - Pass Details

Date: 05 February 2023
Orbit: 502 x 570 km, 97.5° (Epoch: 20 March)

Event Time Altitude Azimuth Distance (km) Brightness Sun altitude
Exits shadow 19:12:44 31° 281° (W) 985 4.6 -29.9°
Drops below altitude 10° 19:15:52 10° 330° (NNW) 1,861 6.0 -30.3°
Sets 19:18:13 0° 340° (NNW) 2,772 6.9 -30.7°
